Regional Weather Roundup
Issued by NWS

Home | Current Version | Previous Version | Graphics & Text | Print | Product List | Glossary On
Versions: 1 2 3 4 5 6 7 8 9 10 11 12 13 14 15 16 17 18 19 20 21 22 23 24 25 26 27 28 29 30 31 32 33 34 35 36 37 38 39 40 41 42 43 44 45 46 47 48 49 50
000
ASUS43 KDMX 250406
RWRIA

WEATHER ROUNDUP FOR IOWA
NATIONAL WEATHER SERVICE DES MOINES IA
1100 PM CDT SAT JUN 24 2017

NOTE: "FAIR" INDICATES FEW OR NO CLOUDS BELOW 12,000 FEET WITH NO
SIGNIFICANT WEATHER AND/OR OBSTRUCTIONS TO VISIBILITY.

* - THESE STATIONS ARE NOT NWS STATIONS...THUS NOT UNDER NWS
QUALITY CONTROL.  THEY ALSO DO NOT REPORT WEATHER SUCH
AS PRECIPITATION OR FOG.

IAZ001>003-012>014-020>022-031>034-043>046-250500-
   NORTHWEST IOWA

CITY           SKY/WX    TMP DP  RH WIND       PRES   REMARKS
CARROLL *      CLEAR     54  43  66 W3        30.17R
CHEROKEE *     CLEAR     56  43  61 NW6       30.18R
DENISON *      CLEAR     57  41  54 CALM      30.20R
LE MARS *      CLEAR     55  41  58 N5        30.20R
ORANGE CITY *  CLEAR     59  43  55 N8        30.19R
SHELDON *      CLEAR     54  41  62 NW8       30.18R
SIOUX CITY     CLEAR     58  42  55 NW7       30.20R
SPENCER        CLEAR     52  43  71 NW5       30.17R
STORM LAKE *   CLEAR     59  41  51 NW8       30.18R
$$

IAZ055>058-069>071-079>083-090>094-250500-
   SOUTHWEST IOWA

CITY           SKY/WX    TMP DP  RH WIND       PRES   REMARKS
ATLANTIC *     CLEAR     59  46  63 CALM      30.17R
AUDUBON *      CLEAR     61  43  51 NW5       30.19R
CLARINDA *     CLEAR     57  52  82 CALM      30.19R
COUNCIL BLFS * CLEAR     66  41  39 NW5       30.18R
CRESTON *      CLEAR     61  45  55 NW6       30.18R
HARLAN  *      CLEAR     59  43  55 N5        30.21R
LAMONI         CLEAR     63  49  60 W7        30.16R
RED OAK *      CLEAR     59  52  77 CALM      30.18R
SHENANDOAH *   CLEAR     61  52  72 CALM      30.18R
$$

IAZ047>049-059>061-072>074-084-250500-
   CENTRAL IOWA

CITY           SKY/WX    TMP DP  RH WIND       PRES   REMARKS
AMES           CLEAR     60  46  59 NW6       30.14R
ANKENY *       CLEAR     59  46  63 N5        30.16R
BOONE *        CLEAR     59  45  58 NW3       30.14R
CHARITON *     CLEAR     61  46  59 W7        30.15R
DES MOINES     CLEAR     65  43  44 N6        30.14R
GRINNELL*      CLEAR     58  45  61 NW3       30.15R
KNOXVILLE *    PTCLDY    64  43  45 N6        30.13R
MARSHALLTOWN   CLEAR     54  47  77 W3        30.13R
NEWTON *       CLEAR     61  45  55 N7        30.14R
PELLA *        CLEAR     60  44  54 CALM      30.15R
PERRY *          N/A     58  44  59 NW5       30.16R
$$

IAZ004>006-015-016-023>025-035-036-250500-
   NORTH CENTRAL IOWA

CITY           SKY/WX    TMP DP  RH WIND       PRES   REMARKS
ALGONA *       CLEAR     54  43  66 NW7       30.15R
CLARION *        N/A     52  46  82 CALM      30.14R
ESTHERVILLE    CLEAR     53  43  68 NW8       30.15R
FORT DODGE *   CLEAR     55  39  54 CALM      30.16R
MASON CITY     CLEAR     52  41  66 NW6       30.14R
FOREST CITY *    N/A     52  34  50 NW6       30.13S
WEBSTER CITY * CLEAR     52  45  76 NW8       30.13R
IOWA FALLS *     N/A     53  47  78 W3        30.15R
$$

IAZ007>011-017>019-026>030-037>042-050>054-066-250500-
   NORTHEAST IOWA

CITY           SKY/WX    TMP DP  RH WIND       PRES   REMARKS
CEDAR RAPIDS   CLEAR     58  49  72 NW5       30.11R
CHARLES CITY * CLEAR     54  46  76 NW3       30.12R
CLINTON *      MOCLDY    58  54  86 N5        30.11R
DECORAH *      CLEAR     54  48  82 W3        30.09R
DUBUQUE        CLEAR     52  50  93 CALM      30.10R
MONTICELLO *   CLEAR     54  54 100 CALM      30.10S
OELWEIN *      CLEAR     55  50  82 NW7       30.12R
WATERLOO       CLEAR     56  43  61 W6        30.11R
$$

IAZ064-065-067-068-078-250500-
   EAST CENTRAL IOWA

CITY           SKY/WX    TMP DP  RH WIND       PRES   REMARKS
DAVENPORT      PTCLDY    58  50  75 N3        30.11R
IOWA CITY      CLEAR     63  46  54 NW6       30.12R
MT. PLEASANT * PTCLDY    65  44  46 NW9       30.13R
MUSCATINE *    CLEAR     64  46  52 N6        30.11R
QUAD CITIES    PTCLDY    64  48  56 N7        30.10R
$$

IAZ062-063-075>077-085>089-095>099-250500-
   SOUTHEAST IOWA

CITY           SKY/WX    TMP DP  RH WIND       PRES   REMARKS
BURLINGTON     CLEAR     62  48  60 W6        30.10R
FAIRFIELD *    CLEAR     63  45  51 N7        30.13R
FORT MADISON * CLEAR     64  48  55 SW5       30.12R
KEOKUK *       CLEAR     63  50  63 SW7       30.11R
OSKALOOSA *      N/A     60  44  56 N6        30.14R
CENTERVILLE *    N/A     59  50  72 CALM      30.16R
OTTUMWA        CLEAR     60  44  55 N8        30.14R
WASHINGTON *   CLEAR     64  45  48 N10       30.13R
$$

ABBREVIATIONS USED IN REMARKS
   TC - TEMPERATURES IN CELSIUS
  WCI - WIND CHILL INDEX
   HX - HEAT INDEX
  VSB - VISIBILITY
$$





USA.gov is the U.S. government's official web portal to all federal, state and local government web resources and services.